Cape Girardeau, MO

7:49 AM CST on December 08, 2019 (GMT -0600)
Cape Girardeau Regional

Weather History for KCGI - November, 2019

Change the Weather History Date:

Thursday, November 14, 2019

  Actual Average Record
Temperature  
Mean Temperature 37 °F 48 °F  
Max Temperature 49 °F 58 °F 80 °F (1964)
Min Temperature 24 °F 37 °F 13 °F (1986)
Degree Days  
Heating Degree Days 28 17  
Month to date heating degree days 358 209  
Since 1 July heating degree days 619 512  
Cooling Degree Days 0 0  
Month to date cooling degree days 0 0  
Year to date cooling degree days 1775 1451  
Moisture  
Dew Point 25 °F    
Average Humidity 65    
Maximum Humidity 88    
Minimum Humidity 42    
Precipitation  
Precipitation 0.00 in 0.15 in 1.34 in (2011)
Month to date precipitation 2.08 1.93  
Year to date precipitation 57.59 40.05  
Sea Level Pressure  
Sea Level Pressure 30.29 in    
Wind  
Wind Speed 3 mph (East)    
Max Wind Speed 12 mph    
Max Gust Speed 14 mph    
Visibility 10 miles    
Events      
T = Trace of Precipitation, MM = Missing Value Source: NWS Daily Summary

Daily Weather History Graph

Daily Weather History Graph

Search for Another Location

Airport or City:

Astronomy

Nov. 14, 2019 Rise Set
Actual Time 6:36 AM CST 4:48 PM CST
Civil Twilight 6:08 AM CST 5:16 PM CST
Nautical Twilight 5:36 AM CST 5:48 PM CST
Astronomical Twilight 5:06 AM CST 6:18 PM CST
Moon 6:36 PM CST (11/14) 8:30 AM CST (11/14)
Length of Visible Light 11h 08m
Length of Day
10h 12m
Waning Gibbous, 95% of the Moon is Illuminated
Nov 14
Waning Gibbous
Nov 19
Last Quarter
Nov 26
New
Dec 4
First Quarter
Dec 11
Full

Hourly Weather History & Observations

Time (CST) Temp. Windchill Dew Point Humidity Pressure Visibility Wind Dir Wind Speed Gust Speed Precip Events Conditions
12:53 AM 27.0 °F 21.6 °F 23.0 °F 85% 30.21 in 10.0 mi South 4.6 mph - N/A   Clear
1:53 AM 26.1 °F 20.5 °F 21.0 °F 81% 30.21 in 10.0 mi SSE 4.6 mph - N/A   Clear
2:53 AM 28.0 °F 22.8 °F 23.0 °F 81% 30.22 in 10.0 mi SE 4.6 mph - N/A   Overcast
3:53 AM 28.9 °F 23.9 °F 23.0 °F 78% 30.21 in 10.0 mi SSE 4.6 mph - N/A   Overcast
4:53 AM 28.9 °F 23.9 °F 21.9 °F 75% 30.23 in 10.0 mi South 4.6 mph - N/A   Clear
5:53 AM 27.0 °F 23.0 °F 21.9 °F 81% 30.24 in 10.0 mi South 3.5 mph - N/A   Clear
7:53 AM 30.0 °F - 25.0 °F 82% 30.27 in 10.0 mi Calm Calm - N/A   Clear
8:53 AM 34.0 °F - 24.1 °F 67% 30.28 in 10.0 mi Calm Calm - N/A   Clear
10:53 AM 37.9 °F - 26.1 °F 62% 30.31 in 10.0 mi Calm Calm - N/A   Overcast
11:53 AM 41.0 °F - 28.0 °F 60% 30.30 in 10.0 mi Calm Calm - N/A   Overcast
12:53 PM 46.0 °F - 28.9 °F 51% 30.28 in 10.0 mi Calm Calm - N/A   Overcast
1:53 PM 46.0 °F 43.1 °F 26.1 °F 46% 30.28 in 10.0 mi NW 5.8 mph - N/A   Scattered Clouds
2:53 PM 48.0 °F - 27.0 °F 44% 30.28 in 10.0 mi North 4.6 mph - N/A   Clear
3:53 PM 46.0 °F 43.1 °F 28.0 °F 50% 30.30 in 10.0 mi North 5.8 mph - N/A   Clear
4:53 PM 39.0 °F 34.8 °F 27.0 °F 62% 30.32 in 10.0 mi NNW 5.8 mph - N/A   Clear
5:53 PM 37.0 °F 31.6 °F 27.0 °F 67% 30.34 in 10.0 mi NNE 6.9 mph - N/A   Clear
6:53 PM 36.0 °F 32.1 °F 26.1 °F 67% 30.35 in 10.0 mi NE 4.6 mph - N/A   Clear
7:53 PM 34.0 °F - 26.1 °F 73% 30.36 in 10.0 mi Calm Calm - N/A   Clear
9:53 PM 30.9 °F - 26.1 °F 82% 30.39 in 10.0 mi Calm Calm - N/A   Clear
10:53 PM 30.0 °F - 27.0 °F 88% 30.39 in 10.0 mi Calm Calm - N/A   Clear
11:53 PM 28.0 °F - 25.0 °F 88% 30.40 in 8.0 mi Calm Calm - N/A   Clear